Total_Precipitation_Accumulation
0.14 0.09 0.20 0.16 0.11 0.13 0.16 0.19 0.22 0.24 0.24 0.23 0.23 0.24 0.20 0.15 0.14 0.15 0.24 0.35 0.35 0.37 0.38 0.39 0.47 0.49 0.48 0.48 0.48 0.43 0.41 0.42 0.43 0.43 0.44 0.49 0.55 0.73 0.92 0.89 0.89 0.62 0.52
0.09 0.07 0.20 0.17 0.11 0.13 0.16 0.20 0.21 0.21 0.21 0.20 0.22 0.22 0.20 0.16 0.14 0.14 0.22 0.35 0.38 0.37 0.33 0.36 0.38 0.39 0.39 0.36 0.34 0.32 0.32 0.38 0.41 0.46 0.46 0.44 0.54 0.80 0.95 0.91 0.99 0.56 0.46
0.08 0.08 0.15 0.19 0.14 0.12 0.15 0.20 0.23 0.23 0.19 0.18 0.19 0.20 0.19 0.18 0.19 0.20 0.26 0.40 0.46 0.40 0.34 0.35 0.33 0.33 0.32 0.27 0.24 0.24 0.28 0.37 0.45 0.57 0.70 0.58 0.44 0.81 0.97 0.89 0.65 0.42 0.44
0.09 0.10 0.12 0.17 0.17 0.15 0.15 0.20 0.23 0.23 0.22 0.23 0.23 0.20 0.19 0.19 0.20 0.21 0.25 0.32 0.37 0.34 0.30 0.26 0.26 0.25 0.21 0.16 0.17 0.21 0.28 0.39 0.52 0.78 1.05 0.85 0.46 0.67 0.83 0.71 0.53 0.42 0.43
0.13 0.10 0.16 0.19 0.22 0.20 0.17 0.20 0.23 0.25 0.25 0.26 0.24 0.22 0.21 0.21 0.21 0.21 0.22 0.24 0.26 0.25 0.23 0.22 0.23 0.21 0.17 0.13 0.14 0.20 0.27 0.37 0.52 0.85 0.93 0.93 0.80 0.69 0.67 0.62 0.55 0.56 0.51
0.19 0.16 0.20 0.23 0.22 0.25 0.22 0.23 0.26 0.26 0.26 0.24 0.22 0.22 0.21 0.22 0.24 0.22 0.21 0.23 0.27 0.27 0.24 0.24 0.24 0.23 0.18 0.15 0.16 0.19 0.25 0.38 0.54 0.60 0.64 0.73 0.68 0.65 0.63 0.68 0.69 0.66 0.59
0.38 0.31 0.30 0.33 0.31 0.27 0.24 0.24 0.24 0.25 0.28 0.25 0.23 0.23 0.22 0.24 0.23 0.21 0.20 0.20 0.22 0.25 0.25 0.24 0.24 0.20 0.22 0.23 0.20 0.21 0.28 0.44 0.56 0.54 0.52 0.78 0.71 0.50 0.66 0.83 0.97 0.87 0.70
0.51 0.48 0.41 0.39 0.37 0.34 0.29 0.29 0.31 0.28 0.28 0.28 0.27 0.24 0.23 0.21 0.21 0.21 0.21 0.19 0.16 0.18 0.21 0.24 0.27 0.24 0.23 0.27 0.24 0.23 0.29 0.40 0.41 0.45 0.44 0.58 0.50 0.47 0.65 0.87 1.03 0.98 0.84
0.63 0.59 0.50 0.44 0.38 0.38 0.36 0.36 0.38 0.36 0.34 0.32 0.29 0.25 0.22 0.20 0.20 0.20 0.21 0.20 0.18 0.17 0.18 0.20 0.22 0.21 0.20 0.24 0.30 0.32 0.36 0.48 0.51 0.54 0.49 0.62 0.54 0.61 0.80 0.98 1.09 1.06 1.01
0.95 0.75 0.63 0.60 0.57 0.52 0.46 0.43 0.45 0.40 0.38 0.39 0.34 0.32 0.30 0.29 0.26 0.28 0.27 0.26 0.26 0.25 0.22 0.20 0.22 0.23 0.23 0.24 0.28 0.41 0.55 0.51 0.40 0.50 0.68 0.59 0.57 0.82 1.07 1.16 1.26 1.26 1.21
1.24 1.04 0.87 0.78 0.74 0.69 0.61 0.54 0.58 0.55 0.52 0.52 0.50 0.47 0.44 0.44 0.46 0.50 0.44 0.47 0.44 0.44 0.45 0.43 0.44 0.44 0.41 0.33 0.38 0.59 0.64 0.45 0.55 0.78 0.83 0.62 0.74 1.07 1.33 1.40 1.41 1.43 1.39
1.40 1.14 1.07 1.00 0.87 0.78 0.67 0.74 0.90 0.81 0.76 0.75 0.80 0.76 0.75 0.81 0.77 0.59 0.63 0.79 0.93 0.97 0.94 1.01 1.12 0.91 0.72 0.75 1.20 1.24 0.57 0.52 0.75 0.91 0.93 0.79 1.01 1.40 1.59 1.67 1.65 1.56 1.50
1.67 1.40 1.30 1.21 1.10 1.06 1.11 1.01 1.05 1.04 1.07 1.03 1.07 1.11 1.13 1.01 0.87 0.82 0.93 1.14 1.33 1.38 1.36 1.66 1.71 1.24 1.32 1.62 1.73 1.45 0.84 0.79 1.00 1.04 1.22 1.25 1.28 1.71 2.12 2.12 2.04 1.85 1.70
1.98 1.70 1.53 1.45 1.42 1.39 1.31 1.27 1.18 1.20 1.24 1.28 1.35 1.36 1.47 1.54 1.43 1.40 1.48 1.53 1.70 1.81 2.03 2.14 2.25 1.94 1.92 1.82 1.68 1.52 1.33 1.38 1.33 1.60 1.97 1.78 1.52 1.78 2.45 2.61 2.48 2.27 1.90
2.12 1.86 1.83 1.65 1.55 1.57 1.64 1.67 1.54 1.62 1.58 1.56 1.67 1.74 1.81 2.01 2.00 1.97 1.86 1.86 1.80 1.98 2.18 2.48 2.40 2.63 2.56 2.28 1.93 1.73 1.72 1.72 1.65 1.89 2.16 2.20 2.04 2.04 2.69 3.10 3.00 2.71 2.30
2.06 1.93 1.91 1.81 1.87 1.98 1.98 1.98 2.05 2.06 2.03 1.98 1.95 1.99 2.03 2.24 2.46 2.39 2.17 2.14 2.03 2.10 2.41 2.64 2.65 3.02 2.85 2.69 2.23 2.06 1.91 1.84 1.81 2.00 2.23 2.42 2.36 2.30 2.59 3.02 3.28 3.19 2.81
1.85 1.97 2.14 2.28 2.43 2.56 2.59 2.56 2.49 2.51 2.41 2.39 2.52 2.54 2.55 2.54 2.59 2.47 2.32 2.23 2.34 2.46 2.63 2.67 2.77 3.08 2.81 2.69 2.50 2.32 2.12 1.94 1.84 2.02 2.31 2.61 2.39 2.30 2.57 2.93 3.29 3.23 3.06
1.81 1.97 2.22 2.36 2.66 2.87 2.94 3.04 3.02 2.94 2.79 2.85 2.84 2.84 2.82 2.73 2.62 2.67 2.43 2.24 2.48 2.61 2.77 2.93 2.90 2.97 2.97 2.92 2.76 2.41 2.26 2.15 1.91 1.96 2.09 2.26 2.42 2.05 2.41 2.91 3.08 2.95 2.97
2.06 2.34 2.71 2.80 2.76 2.86 3.05 3.20 3.04 2.98 2.87 2.80 2.71 2.71 2.62 2.54 2.52 2.78 2.59 2.56 2.68 2.87 2.77 2.59 2.95 3.07 3.01 2.99 2.67 2.51 2.15 2.03 1.96 1.87 1.92 2.02 2.24 2.20 2.19 2.35 2.77 2.68 2.90
2.40 2.75 2.90 2.96 3.19 3.48 3.68 3.59 3.34 3.00 2.76 2.63 2.54 2.42 2.39 2.46 2.50 2.75 2.55 2.59 2.78 2.96 3.01 3.00 3.08 3.05 2.92 2.98 2.63 2.42 2.09 1.78 1.75 1.70 1.58 1.74 1.85 1.68 1.76 1.93 2.26 2.02 2.25
2.43 2.66 2.91 3.24 3.61 3.72 3.63 3.58 3.50 3.18 2.88 2.51 2.27 2.25 2.33 2.30 2.41 2.67 2.41 2.70 2.85 2.88 2.99 3.02 3.16 3.05 2.88 3.05 2.93 2.43 1.95 1.66 1.50 1.36 1.37 1.48 1.45 1.53 1.76 2.05 2.32 2.35 2.11
2.37 2.64 2.99 3.27 3.60 3.57 3.68 3.83 3.71 3.45 2.86 2.48 2.27 2.23 2.25 2.26 2.28 2.42 2.70 2.75 2.83 2.90 2.91 2.86 2.89 2.70 2.52 2.87 2.92 2.70 2.11 1.74 1.39 1.18 1.36 1.35 1.44 1.67 1.71 1.77 2.08 2.40 2.30
2.47 2.87 3.12 3.31 3.40 3.44 3.56 3.61 3.29 3.07 2.64 2.50 2.47 2.34 2.26 2.34 2.38 2.48 2.65 2.74 2.67 2.60 2.65 2.74 2.64 2.49 2.34 2.47 2.74 2.76 2.29 1.82 1.46 1.21 1.22 1.29 1.59 1.76 1.69 1.69 1.70 1.82 1.89
2.48 2.89 3.27 3.25 3.22 3.17 3.29 3.35 3.16 2.86 2.60 2.47 2.46 2.24 2.08 2.05 2.10 2.20 2.27 2.43 2.49 2.48 2.46 2.41 2.39 2.41 2.36 2.24 2.45 2.53 2.38 2.14 1.89 1.41 1.15 1.19 1.44 1.56 1.51 1.41 1.48 1.68 1.80
2.16 2.47 2.82 3.04 3.07 2.97 2.97 2.97 2.93 2.70 2.44 2.27 2.20 2.08 2.01 2.02 1.91 1.90 2.00 2.19 2.24 2.16 2.16 2.29 2.46 2.43 2.29 2.16 2.26 2.35 2.48 2.40 2.10 1.78 1.37 1.27 1.27 1.20 1.31 1.33 1.35 1.45 1.66
1.95 2.20 2.41 2.58 2.65 2.61 2.55 2.55 2.57 2.47 2.38 2.20 2.04 2.05 2.06 1.98 1.83 1.77 1.79 1.89 1.95 1.95 1.92 1.97 2.08 2.12 2.10 2.19 2.22 2.21 2.31 2.31 2.20 2.09 1.70 1.47 1.35 1.08 1.12 1.19 1.27 1.32 1.41